Torna al catalogo

RAISE 2

AttivoScienzaSSO
NORAD 49397·PAYLOAD·🇯🇵 Japan

Lanciato Nov 9, 2021 da Uchinoura Space Center

Loading…

Prossimi Passaggi (prossime 24 ore)

TLE

AggiornatoSource: Space-Track

Epoca: Sep 13, 2026, 14:45 UTC

1 49397U 21102C   26256.61508156  .00004611  00000-0  20246-3 0  9990
2 49397  97.3198 287.3202 0007750 345.5602  14.5412 15.22391853266885

Traccia RAISE 2 in tempo reale con AllMySat

Download on the App Store